Location: Killam
(52.7910°N, 111.8608°W)
Time: 11:58:46
(UTC+00:00)

FENGYUN 1C DEB - Pass Details

Date: 30 May 2024
Orbit: 795 x 992 km, 98.4° (Epoch: 16 June)

Event Time Altitude Azimuth Distance (km) Brightness Sun altitude
Rises 05:54:35 0° 16° (NNE) 3,325 ? -12.8°
Reaches altitude 10° 05:56:55 10° 18° (NNE) 2,402 ? -12.9°
Maximum altitude 06:02:13 77° 104° (ESE) 855 ? -13.2°
Enters shadow 06:06:49 15° 190° (S) 2,139 ? -13.4°
